,,PressureMeas_1m,,PRMeasQMR101_1,,RHStat155_1m_1,,SRMeasQMS101R_1m,,TAStat155_1m_1,,GenWind_1,,GenWind_1,
2019-08-20, 00:00:06,VALID,918.83,VALID,0.0,VALID,97.553,VALID,0.003,VALID,21.577,INVALID,360.0,VALID,0.0,
2019-08-20, 00:01:06,VALID,918.818,VALID,0.0,VALID,97.467,VALID,0.019,VALID,21.555,INVALID,360.0,VALID,0.0,
2019-08-20, 00:02:06,VALID,918.793,VALID,0.0,VALID,97.45,VALID,0.011,VALID,21.529,INVALID,360.0,VALID,0.0,
2019-08-20, 00:03:06,VALID,918.778,VALID,0.0,VALID,97.634,VALID,0.005,VALID,21.517,INVALID,360.0,VALID,0.0,
2019-08-20, 00:04:06,VALID,918.752,VALID,0.0,VALID,97.678,VALID,0.002,VALID,21.497,INVALID,360.0,VALID,0.0,
2019-08-20, 00:05:06,VALID,918.74,VALID,0.0,VALID,97.727,VALID,0.006,VALID,21.469,INVALID,360.0,VALID,0.0,
2019-08-20, 00:06:06,VALID,918.725,VALID,0.0,VALID,97.769,VALID,-0.001,VALID,21.452,INVALID,360.0,VALID,0.0,
2019-08-20, 00:07:06,VALID,918.697,VALID,0.0,VALID,97.851,VALID,-0.003,VALID,21.449,INVALID,360.0,VALID,0.0,
2019-08-20, 00:08:06,VALID,918.709,VALID,0.0,VALID,97.938,VALID,-0.011,VALID,21.466,INVALID,360.0,VALID,0.0,
2019-08-20, 00:09:06,VALID,918.703,VALID,0.0,VALID,97.978,VALID,0.007,VALID,21.5,INVALID,360.0,VALID,0.0,
2019-08-20, 00:10:06,VALID,918.694,VALID,0.0,VALID,97.955,VALID,0.002,VALID,21.532,INVALID,360.0,VALID,0.0,
2019-08-20, 00:11:06,VALID,918.674,VALID,0.0,VALID,97.795,VALID,0.005,VALID,21.529,INVALID,360.0,VALID,0.0,
2019-08-20, 00:12:06,VALID,918.667,VALID,0.0,VALID,97.467,VALID,0.0,VALID,21.499,INVALID,360.0,VALID,0.0,
2019-08-20, 00:13:06,VALID,918.664,VALID,0.0,VALID,97.236,VALID,-0.001,VALID,21.447,INVALID,360.0,VALID,0.0,
2019-08-20, 00:14:06,VALID,918.658,VALID,0.0,VALID,97.36,VALID,0.008,VALID,21.41,INVALID,360.0,VALID,0.0,
2019-08-20, 00:15:06,VALID,918.64,VALID,0.0,VALID,97.633,VALID,0.007,VALID,21.4,INVALID,360.0,VALID,0.0,
2019-08-20, 00:16:06,VALID,918.653,VALID,0.0,VALID,97.785,VALID,0.009,VALID,21.382,INVALID,360.0,VALID,0.0,
2019-08-20, 00:17:06,VALID,918.625,VALID,0.0,VALID,97.925,VALID,-0.0,VALID,21.403,INVALID,360.0,VALID,0.0,
2019-08-20, 00:18:06,VALID,918.631,VALID,0.0,VALID,97.906,VALID,0.014,VALID,21.408,INVALID,360.0,VALID,0.0,
2019-08-20, 00:19:06,VALID,918.635,VALID,0.0,VALID,97.922,VALID,0.008,VALID,21.425,INVALID,360.0,VALID,0.0,
2019-08-20, 00:20:06,VALID,918.647,VALID,0.0,VALID,97.894,VALID,0.005,VALID,21.419,INVALID,360.0,VALID,0.0,
2019-08-20, 00:21:06,VALID,918.648,VALID,0.0,VALID,97.937,VALID,-0.004,VALID,21.461,INVALID,360.0,VALID,0.0,
2019-08-20, 00:22:06,VALID,918.66,VALID,0.0,VALID,97.911,VALID,-0.02,VALID,21.48,INVALID,360.0,VALID,0.0,
2019-08-20, 00:23:06,VALID,918.655,VALID,0.0,VALID,97.895,VALID,-0.011,VALID,21.499,INVALID,360.0,VALID,0.0,
2019-08-20, 00:24:06,VALID,918.658,VALID,0.0,VALID,97.879,VALID,0.011,VALID,21.514,INVALID,360.0,VALID,0.0,
2019-08-20, 00:25:06,VALID,918.671,VALID,0.0,VALID,97.83,VALID,0.004,VALID,21.531,INVALID,360.0,VALID,0.0,
2019-08-20, 00:26:06,VALID,918.659,VALID,0.0,VALID,97.776,VALID,-0.013,VALID,21.545,INVALID,360.0,VALID,0.0,
2019-08-20, 00:27:06,VALID,918.664,VALID,0.0,VALID,97.753,VALID,-0.021,VALID,21.57,INVALID,360.0,VALID,0.0,
2019-08-20, 00:28:06,VALID,918.663,VALID,0.0,VALID,97.706,VALID,-0.006,VALID,21.592,INVALID,360.0,VALID,0.0,
2019-08-20, 00:29:06,VALID,918.653,VALID,0.0,VALID,97.611,VALID,0.002,VALID,21.595,INVALID,360.0,VALID,0.0,
2019-08-20, 00:30:06,VALID,918.66,VALID,0.0,VALID,97.591,VALID,0.003,VALID,21.622,INVALID,360.0,VALID,0.0,
2019-08-20, 00:31:06,VALID,918.635,VALID,0.0,VALID,97.458,VALID,0.01,VALID,21.632,INVALID,360.0,VALID,0.0,
2019-08-20, 00:32:06,VALID,918.632,VALID,0.0,VALID,97.244,VALID,-0.005,VALID,21.611,INVALID,360.0,VALID,0.0,
2019-08-20, 00:33:06,VALID,918.615,VALID,0.0,VALID,97.281,VALID,-0.01,VALID,21.619,INVALID,360.0,VALID,0.0,
2019-08-20, 00:34:06,VALID,918.594,VALID,0.0,VALID,97.28,VALID,-0.011,VALID,21.604,INVALID,360.0,VALID,0.0,
2019-08-20, 00:35:06,VALID,918.576,VALID,0.0,VALID,97.334,VALID,-0.008,VALID,21.581,INVALID,360.0,VALID,0.0,
2019-08-20, 00:36:06,VALID,918.557,VALID,0.0,VALID,97.429,VALID,0.005,VALID,21.573,INVALID,360.0,VALID,0.0,
2019-08-20, 00:37:06,VALID,918.52,VALID,0.0,VALID,97.434,VALID,0.011,VALID,21.555,INVALID,360.0,VALID,0.0,
2019-08-20, 00:38:06,VALID,918.486,VALID,0.0,VALID,97.506,VALID,-0.004,VALID,21.536,INVALID,360.0,VALID,0.0,
2019-08-20, 00:39:06,VALID,918.448,VALID,0.0,VALID,97.603,VALID,-0.001,VALID,21.532,INVALID,360.0,VALID,0.0,
2019-08-20, 00:40:06,VALID,918.426,VALID,0.0,VALID,97.652,VALID,-0.005,VALID,21.527,INVALID,360.0,VALID,0.0,
2019-08-20, 00:41:06,VALID,918.422,VALID,0.0,VALID,97.704,VALID,-0.001,VALID,21.515,INVALID,360.0,VALID,0.0,
2019-08-20, 00:42:06,VALID,918.394,VALID,0.0,VALID,97.792,VALID,-0.001,VALID,21.523,INVALID,360.0,VALID,0.0,
2019-08-20, 00:43:06,VALID,918.392,VALID,0.0,VALID,97.745,VALID,-0.005,VALID,21.514,INVALID,360.0,VALID,0.0,
2019-08-20, 00:44:06,VALID,918.375,VALID,0.0,VALID,97.653,VALID,0.0,VALID,21.469,INVALID,360.0,VALID,0.0,
2019-08-20, 00:45:06,VALID,918.36,VALID,0.0,VALID,97.674,VALID,-0.003,VALID,21.442,INVALID,360.0,VALID,0.0,
2019-08-20, 00:46:06,VALID,918.334,VALID,0.0,VALID,97.734,VALID,-0.0,VALID,21.431,INVALID,360.0,VALID,0.0,
2019-08-20, 00:47:06,VALID,918.319,VALID,0.0,VALID,97.802,VALID,0.011,VALID,21.454,INVALID,360.0,VALID,0.0,
2019-08-20, 00:48:06,VALID,918.307,VALID,0.0,VALID,97.795,VALID,0.011,VALID,21.469,INVALID,360.0,VALID,0.0,
2019-08-20, 00:49:06,VALID,918.28,VALID,0.0,VALID,97.842,VALID,0.004,VALID,21.505,INVALID,360.0,VALID,0.0,
2019-08-20, 00:50:06,VALID,918.263,VALID,0.0,VALID,97.684,VALID,0.019,VALID,21.508,INVALID,360.0,VALID,0.0,
2019-08-20, 00:51:06,VALID,918.262,VALID,0.0,VALID,97.542,VALID,0.029,VALID,21.502,INVALID,360.0,VALID,0.0,
2019-08-20, 00:52:06,VALID,918.249,VALID,0.0,VALID,97.546,VALID,0.003,VALID,21.491,VALID,44.0,VALID,0.0,
2019-08-20, 00:53:06,VALID,918.239,VALID,0.0,VALID,97.457,VALID,0.009,VALID,21.48,VALID,44.0,VALID,0.0,
2019-08-20, 00:54:06,VALID,918.214,VALID,0.0,VALID,97.321,VALID,0.015,VALID,21.46,VALID,44.0,VALID,0.0,
2019-08-20, 00:55:06,VALID,918.235,VALID,0.0,VALID,97.426,VALID,0.011,VALID,21.452,VALID,44.0,VALID,0.0,
2019-08-20, 00:56:06,VALID,918.249,VALID,0.0,VALID,97.524,VALID,-0.002,VALID,21.448,VALID,44.0,VALID,0.0,
2019-08-20, 00:57:06,VALID,918.249,VALID,0.0,VALID,97.585,VALID,0.013,VALID,21.434,VALID,44.0,VALID,0.0,
2019-08-20, 00:58:06,VALID,918.259,VALID,0.0,VALID,97.614,VALID,0.012,VALID,21.433,VALID,44.0,VALID,0.0,
2019-08-20, 00:59:06,VALID,918.251,VALID,0.0,VALID,97.514,VALID,-0.004,VALID,21.42,VALID,44.0,VALID,0.0,
2019-08-20, 01:00:06,VALID,918.257,VALID,0.0,VALID,97.611,VALID,0.005,VALID,21.458,VALID,44.0,VALID,0.0,
2019-08-20, 01:01:06,VALID,918.242,VALID,0.0,VALID,97.64,VALID,0.019,VALID,21.503,VALID,44.0,VALID,0.0,
2019-08-20, 01:02:06,VALID,918.232,VALID,0.0,VALID,97.56,VALID,0.009,VALID,21.534,VALID,44.0,VALID,0.0,
2019-08-20, 01:03:06,VALID,918.203,VALID,0.0,VALID,97.474,VALID,0.019,VALID,21.516,VALID,44.0,VALID,0.0,
2019-08-20, 01:04:06,VALID,918.176,VALID,0.0,VALID,97.594,VALID,0.008,VALID,21.49,VALID,44.0,VALID,0.0,
2019-08-20, 01:05:06,VALID,918.149,VALID,0.0,VALID,97.661,VALID,0.01,VALID,21.486,VALID,44.0,VALID,0.0,
2019-08-20, 01:06:06,VALID,918.147,VALID,0.0,VALID,97.613,VALID,0.019,VALID,21.464,INVALID,360.0,VALID,0.0,
2019-08-20, 01:07:06,VALID,918.133,VALID,0.0,VALID,97.645,VALID,0.004,VALID,21.452,INVALID,360.0,VALID,0.0,
2019-08-20, 01:08:06,VALID,918.134,VALID,0.0,VALID,97.65,VALID,0.024,VALID,21.441,INVALID,360.0,VALID,0.0,
2019-08-20, 01:09:06,VALID,918.118,VALID,0.0,VALID,97.663,VALID,-0.007,VALID,21.444,INVALID,360.0,VALID,0.0,
2019-08-20, 01:10:06,VALID,918.118,VALID,0.0,VALID,97.63,VALID,0.029,VALID,21.447,INVALID,360.0,VALID,0.0,
2019-08-20, 01:11:06,VALID,918.082,VALID,0.0,VALID,97.551,VALID,0.019,VALID,21.44,INVALID,360.0,VALID,0.0,
2019-08-20, 01:12:06,VALID,918.074,VALID,0.0,VALID,97.482,VALID,0.001,VALID,21.447,INVALID,360.0,VALID,0.0,
2019-08-20, 01:13:06,VALID,918.049,VALID,0.0,VALID,97.418,VALID,-0.002,VALID,21.454,VALID,43.0,VALID,0.0,
2019-08-20, 01:14:06,VALID,918.032,VALID,0.0,VALID,97.293,VALID,0.002,VALID,21.457,VALID,43.0,VALID,0.0,
2019-08-20, 01:15:06,VALID,918.021,VALID,0.0,VALID,97.214,VALID,0.024,VALID,21.465,VALID,43.0,VALID,0.0,
2019-08-20, 01:16:06,VALID,918.014,VALID,0.0,VALID,97.115,VALID,0.015,VALID,21.479,INVALID,360.0,VALID,0.0,
2019-08-20, 01:17:06,VALID,917.999,VALID,0.0,VALID,96.92,VALID,0.003,VALID,21.497,INVALID,360.0,VALID,0.0,
2019-08-20, 01:18:06,VALID,917.999,VALID,0.0,VALID,96.834,VALID,-0.01,VALID,21.517,INVALID,360.0,VALID,0.0,
2019-08-20, 01:19:06,VALID,918.003,VALID,0.0,VALID,96.731,VALID,0.001,VALID,21.498,INVALID,360.0,VALID,0.0,
2019-08-20, 01:20:06,VALID,917.983,VALID,0.0,VALID,96.744,VALID,0.01,VALID,21.494,INVALID,360.0,VALID,0.0,
2019-08-20, 01:21:06,VALID,917.975,VALID,0.0,VALID,96.873,VALID,0.007,VALID,21.517,INVALID,360.0,VALID,0.0,
2019-08-20, 01:22:06,VALID,917.976,VALID,0.0,VALID,96.873,VALID,0.01,VALID,21.54,INVALID,360.0,VALID,0.0,
2019-08-20, 01:23:06,VALID,917.964,VALID,0.0,VALID,96.857,VALID,0.013,VALID,21.566,INVALID,360.0,VALID,0.0,
2019-08-20, 01:24:06,VALID,917.946,VALID,0.0,VALID,96.73,VALID,0.011,VALID,21.579,INVALID,360.0,VALID,0.0,
2019-08-20, 01:25:06,VALID,917.928,VALID,0.0,VALID,96.675,VALID,0.015,VALID,21.596,INVALID,360.0,VALID,0.0,
2019-08-20, 01:26:06,VALID,917.915,VALID,0.0,VALID,96.633,VALID,0.022,VALID,21.607,INVALID,360.0,VALID,0.0,
2019-08-20, 01:27:06,VALID,917.883,VALID,0.0,VALID,96.574,VALID,0.01,VALID,21.579,INVALID,360.0,VALID,0.0,
2019-08-20, 01:28:06,VALID,917.861,VALID,0.0,VALID,96.677,VALID,0.023,VALID,21.544,INVALID,360.0,VALID,0.0,
2019-08-20, 01:29:06,VALID,917.869,VALID,0.0,VALID,96.952,VALID,0.006,VALID,21.527,INVALID,360.0,VALID,0.0,
2019-08-20, 01:30:06,VALID,917.852,VALID,0.0,VALID,97.067,VALID,0.01,VALID,21.485,INVALID,360.0,VALID,0.0,
2019-08-20, 01:31:06,VALID,917.847,VALID,0.0,VALID,97.26,VALID,0.003,VALID,21.427,INVALID,360.0,VALID,0.0,
2019-08-20, 01:32:06,VALID,917.839,VALID,0.0,VALID,97.499,VALID,0.007,VALID,21.382,INVALID,360.0,VALID,0.0,
2019-08-20, 01:33:06,VALID,917.823,VALID,0.0,VALID,97.701,VALID,0.013,VALID,21.369,INVALID,360.0,VALID,0.0,
2019-08-20, 01:34:06,VALID,917.797,VALID,0.0,VALID,97.672,VALID,0.002,VALID,21.341,INVALID,360.0,VALID,0.0,
2019-08-20, 01:35:06,VALID,917.798,VALID,0.0,VALID,97.581,VALID,0.007,VALID,21.299,INVALID,360.0,VALID,0.0,
2019-08-20, 01:36:06,VALID,917.784,VALID,0.0,VALID,97.74,VALID,0.018,VALID,21.332,INVALID,360.0,VALID,0.0,
2019-08-20, 01:37:06,VALID,917.77,VALID,0.0,VALID,97.7,VALID,0.012,VALID,21.35,INVALID,360.0,VALID,0.0,
2019-08-20, 01:38:06,VALID,917.75,VALID,0.0,VALID,97.708,VALID,0.008,VALID,21.377,INVALID,360.0,VALID,0.0,
2019-08-20, 01:39:06,VALID,917.732,VALID,0.0,VALID,97.587,VALID,-0.006,VALID,21.388,INVALID,360.0,VALID,0.0,
2019-08-20, 01:40:06,VALID,917.717,VALID,0.0,VALID,97.477,VALID,0.009,VALID,21.384,INVALID,360.0,VALID,0.0,
2019-08-20, 01:41:06,VALID,917.69,VALID,0.0,VALID,97.463,VALID,-0.005,VALID,21.366,INVALID,360.0,VALID,0.0,
2019-08-20, 01:42:06,VALID,917.676,VALID,0.0,VALID,97.535,VALID,0.005,VALID,21.353,INVALID,360.0,VALID,0.0,
2019-08-20, 01:43:06,VALID,917.652,VALID,0.0,VALID,97.62,VALID,0.007,VALID,21.349,INVALID,360.0,VALID,0.0,
2019-08-20, 01:44:06,VALID,917.633,VALID,0.0,VALID,97.626,VALID,0.014,VALID,21.303,INVALID,360.0,VALID,0.0,
2019-08-20, 01:45:06,VALID,917.595,VALID,0.0,VALID,97.796,VALID,-0.002,VALID,21.296,INVALID,360.0,VALID,0.0,
2019-08-20, 01:46:06,VALID,917.602,VALID,0.0,VALID,97.955,VALID,0.009,VALID,21.287,INVALID,360.0,VALID,0.0,
2019-08-20, 01:47:06,VALID,917.563,VALID,0.0,VALID,98.025,VALID,0.012,VALID,21.257,INVALID,360.0,VALID,0.0,
2019-08-20, 01:48:06,VALID,917.551,VALID,0.0,VALID,97.993,VALID,0.019,VALID,21.196,INVALID,360.0,VALID,0.0,
2019-08-20, 01:49:06,VALID,917.53,VALID,0.0,VALID,98.135,VALID,0.011,VALID,21.17,INVALID,360.0,VALID,0.0,
2019-08-20, 01:50:06,VALID,917.505,VALID,0.0,VALID,98.271,VALID,-0.019,VALID,21.161,INVALID,360.0,VALID,0.0,
2019-08-20, 01:51:06,VALID,917.497,VALID,0.0,VALID,98.406,VALID,-0.016,VALID,21.168,INVALID,360.0,VALID,0.0,
2019-08-20, 01:52:06,VALID,917.486,VALID,0.0,VALID,98.456,VALID,-0.017,VALID,21.187,INVALID,360.0,VALID,0.0,
2019-08-20, 01:53:06,VALID,917.45,VALID,0.0,VALID,98.488,VALID,-0.027,VALID,21.212,INVALID,360.0,VALID,0.0,
2019-08-20, 01:54:06,VALID,917.46,VALID,0.0,VALID,98.501,VALID,-0.017,VALID,21.255,INVALID,360.0,VALID,0.0,
2019-08-20, 01:55:06,VALID,917.444,VALID,0.0,VALID,98.393,VALID,-0.028,VALID,21.264,INVALID,360.0,VALID,0.0,
2019-08-20, 01:56:06,VALID,917.435,VALID,0.0,VALID,98.028,VALID,-0.02,VALID,21.219,INVALID,360.0,VALID,0.0,
2019-08-20, 01:57:06,VALID,917.415,VALID,0.0,VALID,97.584,VALID,-0.006,VALID,21.171,INVALID,360.0,VALID,0.0,
2019-08-20, 01:58:06,VALID,917.411,VALID,0.0,VALID,97.445,VALID,-0.022,VALID,21.171,INVALID,360.0,VALID,0.0,
2019-08-20, 01:59:06,VALID,917.402,VALID,0.0,VALID,97.406,VALID,-0.025,VALID,21.177,INVALID,360.0,VALID,0.0,
2019-08-20, 02:00:06,VALID,917.398,VALID,0.0,VALID,97.354,VALID,-0.021,VALID,21.162,INVALID,360.0,VALID,0.0,
2019-08-20, 02:01:06,VALID,917.397,VALID,0.0,VALID,97.331,VALID,-0.016,VALID,21.139,INVALID,360.0,VALID,0.0,
2019-08-20, 02:02:06,VALID,917.383,VALID,0.0,VALID,97.225,VALID,-0.01,VALID,21.107,INVALID,360.0,VALID,0.0,
2019-08-20, 02:03:06,VALID,917.381,VALID,0.0,VALID,97.064,VALID,-0.006,VALID,21.095,INVALID,360.0,VALID,0.0,
2019-08-20, 02:04:06,VALID,917.367,VALID,0.0,VALID,97.1,VALID,0.001,VALID,21.118,INVALID,360.0,VALID,0.0,
2019-08-20, 02:05:06,VALID,917.374,VALID,0.0,VALID,97.227,VALID,0.009,VALID,21.092,INVALID,360.0,VALID,0.0,
2019-08-20, 02:06:06,VALID,917.366,VALID,0.0,VALID,97.394,VALID,0.009,VALID,21.068,INVALID,360.0,VALID,0.0,
2019-08-20, 02:07:06,VALID,917.361,VALID,0.0,VALID,97.541,VALID,-0.008,VALID,21.048,INVALID,360.0,VALID,0.0,
2019-08-20, 02:08:06,VALID,917.347,VALID,0.0,VALID,97.657,VALID,0.001,VALID,21.026,INVALID,360.0,VALID,0.0,
2019-08-20, 02:09:06,VALID,917.359,VALID,0.0,VALID,97.666,VALID,0.015,VALID,20.981,INVALID,360.0,VALID,0.0,
2019-08-20, 02:10:06,VALID,917.341,VALID,0.0,VALID,97.79,VALID,0.006,VALID,20.957,INVALID,360.0,VALID,0.0,
2019-08-20, 02:11:06,VALID,917.338,VALID,0.0,VALID,97.861,VALID,0.002,VALID,20.931,INVALID,360.0,VALID,0.0,
2019-08-20, 02:12:06,VALID,917.313,VALID,0.0,VALID,97.881,VALID,0.016,VALID,20.88,INVALID,360.0,VALID,0.0,
2019-08-20, 02:13:06,VALID,917.298,VALID,0.0,VALID,97.948,VALID,0.016,VALID,20.832,INVALID,360.0,VALID,0.0,
2019-08-20, 02:14:06,VALID,917.249,VALID,0.0,VALID,98.13,VALID,0.002,VALID,20.829,INVALID,360.0,VALID,0.0,
2019-08-20, 02:15:06,VALID,917.23,VALID,0.0,VALID,98.313,VALID,0.002,VALID,20.81,INVALID,360.0,VALID,0.0,
2019-08-20, 02:16:06,VALID,917.202,VALID,0.0,VALID,98.388,VALID,-0.012,VALID,20.795,INVALID,360.0,VALID,0.0,
2019-08-20, 02:17:06,VALID,917.165,VALID,0.0,VALID,98.476,VALID,-0.021,VALID,20.78,INVALID,360.0,VALID,0.0,
2019-08-20, 02:18:06,VALID,917.135,VALID,0.0,VALID,98.535,VALID,-0.008,VALID,20.763,INVALID,360.0,VALID,0.0,
2019-08-20, 02:19:06,VALID,917.134,VALID,0.0,VALID,98.59,VALID,-0.009,VALID,20.756,INVALID,360.0,VALID,0.0,
2019-08-20, 02:20:06,VALID,917.137,VALID,0.0,VALID,98.593,VALID,0.003,VALID,20.749,INVALID,360.0,VALID,0.0,
2019-08-20, 02:21:06,VALID,917.143,VALID,0.0,VALID,98.628,VALID,-0.006,VALID,20.768,INVALID,360.0,VALID,0.0,
2019-08-20, 02:22:06,VALID,917.131,VALID,0.0,VALID,98.675,VALID,0.014,VALID,20.773,INVALID,360.0,VALID,0.0,
2019-08-20, 02:23:06,VALID,917.124,VALID,0.0,VALID,98.672,VALID,0.007,VALID,20.766,INVALID,360.0,VALID,0.0,
2019-08-20, 02:24:06,VALID,917.132,VALID,0.0,VALID,98.739,VALID,0.02,VALID,20.77,INVALID,360.0,VALID,0.0,
2019-08-20, 02:25:06,VALID,917.117,VALID,0.0,VALID,98.787,VALID,0.024,VALID,20.779,INVALID,360.0,VALID,0.0,
2019-08-20, 02:26:06,VALID,917.112,VALID,0.0,VALID,98.767,VALID,0.021,VALID,20.755,INVALID,360.0,VALID,0.0,
2019-08-20, 02:27:06,VALID,917.108,VALID,0.0,VALID,98.747,VALID,0.015,VALID,20.707,INVALID,360.0,VALID,0.0,
2019-08-20, 02:28:06,VALID,917.1,VALID,0.0,VALID,98.73,VALID,0.008,VALID,20.666,INVALID,360.0,VALID,0.0,
2019-08-20, 02:29:06,VALID,917.086,VALID,0.0,VALID,98.758,VALID,0.007,VALID,20.65,INVALID,360.0,VALID,0.0,
2019-08-20, 02:30:06,VALID,917.069,VALID,0.0,VALID,98.766,VALID,0.007,VALID,20.643,INVALID,360.0,VALID,0.0,
2019-08-20, 02:31:06,VALID,917.054,VALID,0.0,VALID,98.809,VALID,0.018,VALID,20.653,INVALID,360.0,VALID,0.0,
2019-08-20, 02:32:06,VALID,917.049,VALID,0.0,VALID,98.756,VALID,0.011,VALID,20.625,INVALID,360.0,VALID,0.0,
2019-08-20, 02:33:06,VALID,917.039,VALID,0.0,VALID,98.748,VALID,0.017,VALID,20.625,INVALID,360.0,VALID,0.0,
2019-08-20, 02:34:06,VALID,917.036,VALID,0.0,VALID,98.743,VALID,-0.005,VALID,20.625,INVALID,360.0,VALID,0.0,
2019-08-20, 02:35:06,VALID,917.031,VALID,0.0,VALID,98.701,VALID,-0.016,VALID,20.614,INVALID,360.0,VALID,0.0,
2019-08-20, 02:36:06,VALID,917.024,VALID,0.0,VALID,98.672,VALID,-0.001,VALID,20.617,INVALID,360.0,VALID,0.0,
2019-08-20, 02:37:06,VALID,917.023,VALID,0.0,VALID,98.641,VALID,0.005,VALID,20.608,INVALID,360.0,VALID,0.0,
2019-08-20, 02:38:06,VALID,917.02,VALID,0.0,VALID,98.624,VALID,0.004,VALID,20.599,INVALID,360.0,VALID,0.0,
2019-08-20, 02:39:06,VALID,917.008,VALID,0.0,VALID,98.56,VALID,0.01,VALID,20.592,INVALID,360.0,VALID,0.0,
2019-08-20, 02:40:06,VALID,917.004,VALID,0.0,VALID,98.536,VALID,0.0,VALID,20.603,INVALID,360.0,VALID,0.0,
2019-08-20, 02:41:06,VALID,916.995,VALID,0.0,VALID,98.47,VALID,0.007,VALID,20.574,INVALID,360.0,VALID,0.0,
2019-08-20, 02:42:06,VALID,916.997,VALID,0.0,VALID,98.347,VALID,0.009,VALID,20.545,INVALID,360.0,VALID,0.0,
2019-08-20, 02:43:06,VALID,916.989,VALID,0.0,VALID,98.241,VALID,-0.005,VALID,20.518,INVALID,360.0,VALID,0.0,
2019-08-20, 02:44:06,VALID,916.996,VALID,0.0,VALID,98.1,VALID,-0.009,VALID,20.472,INVALID,360.0,VALID,0.0,
2019-08-20, 02:45:06,VALID,917.004,VALID,0.0,VALID,97.977,VALID,0.01,VALID,20.435,INVALID,360.0,VALID,0.0,
2019-08-20, 02:46:06,VALID,917.017,VALID,0.0,VALID,97.905,VALID,0.02,VALID,20.414,INVALID,360.0,VALID,0.0,
2019-08-20, 02:47:06,VALID,917.021,VALID,0.0,VALID,97.901,VALID,0.012,VALID,20.408,INVALID,360.0,VALID,0.0,
2019-08-20, 02:48:06,VALID,917.032,VALID,0.0,VALID,97.956,VALID,-0.012,VALID,20.399,INVALID,360.0,VALID,0.0,
2019-08-20, 02:49:06,VALID,917.019,VALID,0.0,VALID,97.983,VALID,0.006,VALID,20.367,INVALID,360.0,VALID,0.0,
2019-08-20, 02:50:06,VALID,917.02,VALID,0.0,VALID,97.987,VALID,-0.006,VALID,20.331,INVALID,360.0,VALID,0.0,
2019-08-20, 02:51:06,VALID,917.025,VALID,0.0,VALID,98.021,VALID,0.004,VALID,20.292,INVALID,360.0,VALID,0.0,
2019-08-20, 02:52:06,VALID,917.0,VALID,0.0,VALID,98.08,VALID,-0.01,VALID,20.268,INVALID,360.0,VALID,0.0,
2019-08-20, 02:53:06,VALID,917.006,VALID,0.0,VALID,98.21,VALID,0.002,VALID,20.266,INVALID,360.0,VALID,0.0,
2019-08-20, 02:54:06,VALID,917.0,VALID,0.0,VALID,98.377,VALID,0.0,VALID,20.272,INVALID,360.0,VALID,0.0,
2019-08-20, 02:55:06,VALID,916.999,VALID,0.0,VALID,98.528,VALID,-0.004,VALID,20.278,INVALID,360.0,VALID,0.0,
2019-08-20, 02:56:06,VALID,916.995,VALID,0.0,VALID,98.606,VALID,-0.002,VALID,20.261,INVALID,360.0,VALID,0.0,
2019-08-20, 02:57:06,VALID,916.976,VALID,0.0,VALID,98.651,VALID,0.01,VALID,20.241,INVALID,360.0,VALID,0.0,
2019-08-20, 02:58:06,VALID,916.994,VALID,0.0,VALID,98.686,VALID,0.004,VALID,20.227,INVALID,360.0,VALID,0.0,
2019-08-20, 02:59:06,VALID,917.002,VALID,0.0,VALID,98.708,VALID,-0.005,VALID,20.226,INVALID,360.0,VALID,0.0,
2019-08-20, 03:00:06,VALID,917.0,VALID,0.0,VALID,98.733,VALID,-0.006,VALID,20.235,INVALID,360.0,VALID,0.0,
2019-08-20, 03:01:06,VALID,916.989,VALID,0.0,VALID,98.729,VALID,-0.0,VALID,20.222,INVALID,360.0,VALID,0.0,
2019-08-20, 03:02:06,VALID,916.99,VALID,0.0,VALID,98.731,VALID,0.007,VALID,20.213,INVALID,360.0,VALID,0.0,
2019-08-20, 03:03:06,VALID,916.993,VALID,0.0,VALID,98.739,VALID,-0.004,VALID,20.216,INVALID,360.0,VALID,0.0,
2019-08-20, 03:04:06,VALID,916.979,VALID,0.0,VALID,98.747,VALID,0.005,VALID,20.21,INVALID,360.0,VALID,0.0,
2019-08-20, 03:05:06,VALID,916.983,VALID,0.0,VALID,98.733,VALID,0.009,VALID,20.198,INVALID,360.0,VALID,0.0,
2019-08-20, 03:06:06,VALID,916.985,VALID,0.0,VALID,98.739,VALID,-0.013,VALID,20.192,INVALID,360.0,VALID,0.0,
2019-08-20, 03:07:06,VALID,916.969,VALID,0.0,VALID,98.766,VALID,-0.0,VALID,20.196,INVALID,360.0,VALID,0.0,
2019-08-20, 03:08:06,VALID,916.953,VALID,0.0,VALID,98.771,VALID,-0.002,VALID,20.188,INVALID,360.0,VALID,0.0,
2019-08-20, 03:09:06,VALID,916.972,VALID,0.0,VALID,98.775,VALID,0.009,VALID,20.183,INVALID,360.0,VALID,0.0,
2019-08-20, 03:10:06,VALID,916.951,VALID,0.0,VALID,98.768,VALID,0.008,VALID,20.185,INVALID,360.0,VALID,0.0,
2019-08-20, 03:11:06,VALID,916.941,VALID,0.0,VALID,98.745,VALID,-0.015,VALID,20.173,INVALID,360.0,VALID,0.0,
2019-08-20, 03:12:06,VALID,916.904,VALID,0.0,VALID,98.73,VALID,0.002,VALID,20.161,INVALID,360.0,VALID,0.0,
2019-08-20, 03:13:06,VALID,916.919,VALID,0.0,VALID,98.698,VALID,0.018,VALID,20.178,INVALID,360.0,VALID,0.0,
2019-08-20, 03:14:06,VALID,916.876,VALID,0.0,VALID,98.64,VALID,-0.009,VALID,20.176,INVALID,360.0,VALID,0.0,
2019-08-20, 03:15:06,VALID,916.892,VALID,0.0,VALID,98.544,VALID,0.007,VALID,20.152,INVALID,360.0,VALID,0.0,
2019-08-20, 03:16:06,VALID,916.899,VALID,0.0,VALID,98.467,VALID,0.003,VALID,20.127,INVALID,360.0,VALID,0.0,
2019-08-20, 03:17:06,VALID,916.898,VALID,0.0,VALID,98.409,VALID,-0.007,VALID,20.104,INVALID,360.0,VALID,0.0,
2019-08-20, 03:18:06,VALID,916.878,VALID,0.0,VALID,98.29,VALID,-0.005,VALID,20.093,INVALID,360.0,VALID,0.0,
2019-08-20, 03:19:06,VALID,916.883,VALID,0.0,VALID,98.195,VALID,-0.008,VALID,20.079,INVALID,360.0,VALID,0.0,
2019-08-20, 03:20:06,VALID,916.868,VALID,0.0,VALID,98.108,VALID,0.0,VALID,20.057,INVALID,360.0,VALID,0.0,
2019-08-20, 03:21:06,VALID,916.862,VALID,0.0,VALID,98.106,VALID,-0.007,VALID,20.05,INVALID,360.0,VALID,0.0,
2019-08-20, 03:22:06,VALID,916.881,VALID,0.0,VALID,98.128,VALID,-0.003,VALID,20.043,INVALID,360.0,VALID,0.0,
2019-08-20, 03:23:06,VALID,916.892,VALID,0.0,VALID,98.125,VALID,0.004,VALID,20.033,INVALID,360.0,VALID,0.0,
2019-08-20, 03:24:06,VALID,916.893,VALID,0.0,VALID,98.17,VALID,0.011,VALID,20.031,INVALID,360.0,VALID,0.0,
2019-08-20, 03:25:06,VALID,916.918,VALID,0.0,VALID,98.207,VALID,0.002,VALID,20.024,INVALID,360.0,VALID,0.0,
2019-08-20, 03:26:06,VALID,916.904,VALID,0.0,VALID,98.244,VALID,-0.014,VALID,20.014,INVALID,360.0,VALID,0.0,
2019-08-20, 03:27:06,VALID,916.934,VALID,0.0,VALID,98.25,VALID,-0.028,VALID,20.009,INVALID,360.0,VALID,0.0,
2019-08-20, 03:28:06,VALID,916.917,VALID,0.0,VALID,98.268,VALID,-0.02,VALID,20.016,INVALID,360.0,VALID,0.0,
2019-08-20, 03:29:06,VALID,916.914,VALID,0.0,VALID,98.226,VALID,-0.036,VALID,20.007,INVALID,360.0,VALID,0.0,
2019-08-20, 03:30:06,VALID,916.913,VALID,0.0,VALID,98.164,VALID,-0.02,VALID,20.004,INVALID,360.0,VALID,0.0,
2019-08-20, 03:31:06,VALID,916.914,VALID,0.0,VALID,98.121,VALID,-0.015,VALID,19.992,INVALID,360.0,VALID,0.0,
2019-08-20, 03:32:06,VALID,916.907,VALID,0.0,VALID,98.095,VALID,-0.012,VALID,19.988,INVALID,360.0,VALID,0.0,
2019-08-20, 03:33:06,VALID,916.911,VALID,0.0,VALID,98.089,VALID,-0.016,VALID,19.98,INVALID,360.0,VALID,0.0,
2019-08-20, 03:34:06,VALID,916.909,VALID,0.0,VALID,98.025,VALID,0.02,VALID,19.964,INVALID,360.0,VALID,0.0,
2019-08-20, 03:35:06,VALID,916.917,VALID,0.0,VALID,97.956,VALID,0.009,VALID,19.94,INVALID,360.0,VALID,0.0,
2019-08-20, 03:36:06,VALID,916.907,VALID,0.0,VALID,97.854,VALID,0.018,VALID,19.917,INVALID,360.0,VALID,0.0,
2019-08-20, 03:37:06,VALID,916.902,VALID,0.0,VALID,97.947,VALID,0.009,VALID,19.921,INVALID,360.0,VALID,0.0,
2019-08-20, 03:38:06,VALID,916.885,VALID,0.0,VALID,98.033,VALID,0.015,VALID,19.926,INVALID,360.0,VALID,0.0,
2019-08-20, 03:39:06,VALID,916.871,VALID,0.0,VALID,98.054,VALID,0.023,VALID,19.914,INVALID,360.0,VALID,0.0,